This demonstration page uses our WeatherBlox Daily Observations layout. Learn more.

38.89511, -77.03637

Hourly Observations for August 9, 2019

Temp ( °F °C ) Dew Point ( °F °C ) Humidity (%) Winds ( mph kmh ) Pressure ( in mb ) Visibility ( mi km ) Precip ( " mm )
12:52 am 00:52 Mostly Cloudy 82 27.8 61 16.1 49 49 W 6 9 29.77 1008 10 16.09344 0 0
1:52 am 01:52 Cloudy 78 25.6 62 16.7 58 58 WSW 5 7 29.77 1008 10 16.09344 0 0
2:52 am 02:52 Cloudy 81 27.2 61 16.1 51 51 WNW 7 11 29.77 1008 10 16.09344 0 0
3:52 am 03:52 Cloudy 80 26.7 62 16.7 54 54 NW 8 13 29.77 1008 10 16.09344 0 0
4:52 am 04:52 Cloudy 76 24.4 63 17.2 64 64 NNW 9 15 29.77 1008 10 16.09344 0 0
5:52 am 05:52 Mostly Cloudy 76 24.4 63 17.2 64 64 N 8 13 29.8 1009 10 16.09344 0 0
6:52 am 06:52 Partly Cloudy 76 24.4 63 17.2 64 64 NNW 8 13 29.8 1009 10 16.09344 0 0
7:52 am 07:52 Partly Cloudy 79 26.1 64 17.8 60 60 NNW 9 15 29.83 1010 10 16.09344 0 0
8:52 am 08:52 Mostly Sunny 80 26.7 64 17.8 58 58 N 12 19 29.83 1010 10 16.09344 0 0
9:52 am 09:52 Mostly Sunny 83 28.3 64 17.8 53 53 NNW 8 13 29.83 1010 10 16.09344 0 0
10:52 am 10:52 Mostly Sunny 85 29.4 64 17.8 50 50 NW 6 9 29.83 1010 10 16.09344 0 0
11:52 am 11:52 Partly Cloudy 87 30.6 63 17.2 45 45 W 8 13 29.8 1009 10 16.09344 0 0
12:52 pm 12:52 Mostly Cloudy 88 31.1 64 17.8 45 45 WNW 8 13 29.8 1009 10 16.09344 0 0
1:52 pm 13:52 Mostly Cloudy 88 31.1 64 17.8 45 45 NNW 12 19 29.8 1009 10 16.09344 0 0
2:52 pm 14:52 Mostly Cloudy with Light Rain 89 31.7 65 18.3 45 45 WNW 12 19 29.77 1008 10 16.09344 0.001 0.001
3:08 pm 15:08 Partly Cloudy 90 32.2 65 18.3 44 44 NW 8 13 29.77 1008 10 16.09344 0.001 0.001
3:52 pm 15:52 Partly Cloudy 91 32.8 65 18.3 42 42 NNW 7 11 29.74 1007 10 16.09344 0.001 0.001
4:01 pm 16:01 Partly Cloudy with Nearby Thunderstorms 89 31.7 63 17.2 42 42 N 9 15 29.74 1007 10 16.09344 0 0
4:36 pm 16:36 Partly Cloudy 92 33.3 58 14.4 32 32 NNW 16 26 29.77 1008 10 16.09344 0 0
4:52 pm 16:52 Mostly Sunny 91 32.8 57 13.9 32 32 NW 10 17 29.74 1007 10 16.09344 0 0
5:52 pm 17:52 Mostly Sunny 91 32.8 55 12.8 30 30 WNW 15 24 29.74 1007 10 16.09344 0 0
6:26 pm 18:26 Mostly Sunny 90 32.2 58 14.4 34 34 NNW 12 19 29.77 1008 10 16.09344 0 0
6:52 pm 18:52 Mostly Sunny 89 31.7 57 13.9 34 34 NW 13 20 29.77 1008 10 16.09344 0 0
7:52 pm 19:52 Mostly Sunny 86 30 56 13.3 36 36 NNW 12 19 29.77 1008 10 16.09344 0 0
8:52 pm 20:52 Partly Cloudy 83 28.3 58 14.4 43 43 NNW 13 20 29.8 1009 10 16.09344 0 0
9:52 pm 21:52 Mostly Clear 81 27.2 54 12.2 39 39 NW 14 22 29.83 1010 10 16.09344 0 0
10:52 pm 22:52 Clear 78 25.6 54 12.2 43 43 NNW 9 15 29.83 1010 10 16.09344 0 0
11:52 pm 23:52 Partly Cloudy 76 24.4 53 11.7 45 45 NNW 10 17 29.85 1011 10 16.09344 0 0

Powered by AerisWeather